This demonstration page uses our WeatherBlox Daily Observations layout. Learn more.

41.86663, -103.66717

Hourly Observations for May 26, 2019

Temp ( °F °C ) Dew Point ( °F °C ) Humidity (%) Winds ( mph kmh ) Pressure ( in mb ) Visibility ( mi km ) Precip ( " mm )
12:53 am 00:53 Clear 55 12.8 48 8.9 77 77 ESE 13 20 29.85 1011 10 16.09344 0 0
1:34 am 01:34 Mostly Cloudy 55 13 50 10 82 82 ESE 13 20 29.91 1013 10 16.09344 0 0
1:44 am 01:44 Mostly Cloudy 57 14 52 11 82 82 SE 14 22 29.88 1012 10 16.09344 0 0
1:53 am 01:53 Partly Cloudy 57 13.9 53 11.7 87 87 SE 13 20 29.88 1012 10 16.09344 0 0
2:14 am 02:14 Mostly Cloudy 55 13 52 11 88 88 E 6 9 29.91 1013 10 16.09344 0 0
2:26 am 02:26 Cloudy with Light Rain 55 13 54 12 94 94 WNW 8 13 29.94 1014 10 16.09344 0 0
2:53 am 02:53 Cloudy with Light Rain 56 13.3 55 12.8 97 97 E 14 22 29.88 1012 6 9.656064 0.03 0.762
3:09 am 03:09 Cloudy with Light Rain 57 13.9 56 13.3 96 96 SE 18 30 29.88 1012 9 14.484096 0.001 0.001
3:53 am 03:53 Clear 57 13.9 56 13.3 96 96 ESE 20 31 29.83 1010 9 14.484096 0.001 0.001
4:53 am 04:53 Clear 58 14.4 50 10 75 75 VRB 7 11 29.83 1010 10 16.09344 0 0
5:53 am 05:53 Sunny 54 12.2 53 11.7 97 97 Calm 29.85 1011 10 16.09344 0 0
6:53 am 06:53 Sunny 59 15 55 12.8 87 87 SE 7 11 29.85 1011 10 16.09344 0 0
7:53 am 07:53 Sunny 60 15.6 52 11.1 75 75 SSE 9 15 29.88 1012 10 16.09344 0 0
8:53 am 08:53 Partly Cloudy 64 17.8 53 11.7 68 68 SSE 13 20 29.88 1012 10 16.09344 0 0
9:53 am 09:53 Cloudy 65 18.3 56 13.3 73 73 SE 17 28 29.88 1012 10 16.09344 0 0
10:12 am 10:12 Cloudy 64 18 55 13 73 73 SE 15 24 29.83 1010 10 16.09344 0 0
10:53 am 10:53 Mostly Cloudy 68 20 58 14.4 70 70 SE 21 33 29.88 1012 10 16.09344 0 0
11:18 am 11:18 Mostly Cloudy 66 19 55 13 68 68 SE 20 31 29.8 1009 10 16.09344 0 0
11:53 am 11:53 Cloudy 65 18.3 58 14.4 78 78 SE 22 35 29.88 1012 10 16.09344 0 0
12:53 pm 12:53 Cloudy 63 17.2 58 14.4 84 84 SE 21 33 29.88 1012 10 16.09344 0 0
1:53 pm 13:53 Cloudy 62 16.7 58 14.4 86 86 SE 17 28 29.85 1011 10 16.09344 0 0
2:26 pm 14:26 Cloudy 63 17 57 14 83 83 ESE 18 30 29.8 1009 10 16.09344 0 0
2:53 pm 14:53 Cloudy 64 17.8 58 14.4 81 81 ESE 14 22 29.83 1010 10 16.09344 0 0
3:23 pm 15:23 Cloudy 65 18.3 59 15 81 81 SE 14 22 29.77 1008 10 16.09344 0 0
3:53 pm 15:53 Cloudy 65 18.3 59 15 81 81 ESE 15 24 29.77 1008 10 16.09344 0 0
4:53 pm 16:53 Cloudy 67 19.4 60 15.6 79 79 ESE 15 24 29.71 1006 10 16.09344 0 0
5:53 pm 17:53 Mostly Cloudy 64 17.8 59 15 84 84 E 14 22 29.74 1007 10 16.09344 0 0
6:53 pm 18:53 Cloudy 63 17.2 59 15 87 87 E 7 11 29.74 1007 10 16.09344 0 0
7:53 pm 19:53 Cloudy with Light Rain 62 16.7 60 15.6 93 93 SE 15 24 29.77 1008 8 12.874752 0.02 0.508
8:53 pm 20:53 Cloudy with Light Rain 59 15 53 11.7 81 81 SE 16 26 29.77 1008 10 16.09344 0.03 0.762
9:53 pm 21:53 Mostly Clear 57 13.9 50 10 78 78 SE 15 24 29.71 1006 10 16.09344 0.02 0.508
10:53 pm 22:53 Clear 55 12.8 51 10.6 87 87 SSE 5 7 29.65 1004 10 16.09344 0 0
11:53 pm 23:53 Clear 55 12.8 50 10 83 83 ESE 3 6 29.71 1006 10 16.09344 0 0

Powered by AerisWeather